Погода в Сурске

Россия / Пензенская область     53°04′33″N   45°41′27″E
темп.,
°C
ветер,
м/с
пор.,
м/с
влажн.,
%
обл.,
%
осадки,
мм/ч
давл.,
гПа
погр.,
м
16 октября, сб
сб1600:00+4юз35713 0.0 102495
03:00+3юз34770 0.0 102454
06:00+2юз35825 0.0 102586
09:00+6юз465925 0.0 1024324
12:00+10юз56448 0.0 10231210
15:00+11юз453848 0.0 10211187
18:00+7ю345128 0.0 102163
21:00+6ю3755100 0.0 1021122
17 октября, вс
вс1700:00+7ююз3856100 0.0 1020207
03:00+7ююз3758100 0.0 1019185
06:00+7ю357288 0.1 1019148
09:00+9ююз3474100 0.1 1019265
12:00+10ююз3466100 0.0 1018379
15:00+12ююз345453 0.0 1016636
18:00+8ююз226965 0.0 101614
21:00+7ю337365 0.0 101624
18 октября, пн
пн1800:00+6ююз337574 0.0 101525
03:00+5юз227729 0.0 101415
06:00+5зюз228463 0.0 101410
09:00+8зюз2372100 0.0 1014199
12:00+11зюз4560100 0.0 1012804
15:00+11зюз565154 0.0 10111046
18:00+7зюз3672100 0.0 1012107
21:00+6зюз3773100 0.0 1012153
19 октября, вт
вт1900:00+5зюз3571100 0.0 1011107
03:00+6з2671100 0.0 1011218
06:00+6зюз3483100 0.1 1011717
09:00+5сз3492100 1.2 1012917
12:00+6з2467100 1.0 1012812
15:00+8зсз4547100 1.0 10111483
18:00+4сз377377 0.3 1013241
21:00+2сз337996 0.3 101465
20 октября, ср
ср2000:00+1зсз35838 0.0 1015129
03:00−1зсз36865 0.0 1016135
06:00−2сз35945 0.0 1017108
09:00+1ссз468799 0.0 1019512
12:00+2ссз4668100 0.0 10201054
15:00+2сз5662100 0.0 10211224
18:00+2сз3670100 0.0 1023478
21:00+2зсз2676100 0.1 1024284